Christchurch Automated, New Zealand

10:53 PM NZST on July 30, 2016 (GMT +1200)
Christchurch International

Weather History for NZCH - August, 2013

Change the Weather History Date:

Thursday, August 22, 2013

  Actual Average Record
Temperature  
Mean Temperature 55 °F -  
Max Temperature 62 °F 52 °F 66 °F (2001)
Min Temperature 48 °F 34 °F 28 °F (2002)
Degree Days  
Heating Degree Days 10    
Growing Degree Days 5 (Base 50)    
Moisture  
Dew Point 46 °F    
Average Humidity 75    
Maximum Humidity 94    
Minimum Humidity 55    
Precipitation  
Precipitation 0.00 in - - ()
Sea Level Pressure  
Sea Level Pressure 29.63 in    
Wind  
Wind Speed 11 mph ()    
Max Wind Speed 20 mph    
Max Gust Speed -    
Visibility 6.2 miles    
Events      
Averages and records for this station are not official NWS values.
T = Trace of Precipitation, MM = Missing Value Source: Averaged Metar Reports

Daily Weather History Graph

Daily Weather History Graph

Search for Another Location

Airport or City:

Trip Planner

Search our weather history database for the weather conditions in past years. The results will help you decide how hot, cold, wet, or windy it might be!

Date:

Astronomy

Aug. 22, 2013 Rise Set
Actual Time 7:14 AM NZST 5:52 PM NZST
Civil Twilight 6:44 AM NZST 6:21 PM NZST
Nautical Twilight 6:11 AM NZST 6:54 PM NZST
Astronomical Twilight 5:38 AM NZST 7:27 PM NZST
Moon 7:22 PM NZST (8/22) 7:18 AM NZST (8/22)
Length of Visible Light 11h 36m
Length of Day
10h 38m
Full, 99% of the Moon is Illuminated
Aug 22
Full
Aug 28
Last Quarter
Sep 5
New
Sep 13
First Quarter
Sep 19
Full

Hourly Weather History & Observations

Time (NZST) Temp. Dew Point Humidity Pressure Visibility Wind Dir Wind Speed Gust Speed Precip Events Conditions
12:00 AM 51.8 °F 46.4 °F 82% 29.68 in - NE 18.4 mph - N/A   Clear
1:00 AM 50.0 °F 46.4 °F 87% 29.65 in - NE 16.1 mph - N/A   Clear
2:00 AM 50.0 °F 46.4 °F 87% 29.65 in - NE 13.8 mph - N/A   Clear
3:00 AM 50.0 °F 48.2 °F 94% 29.65 in - NE 15.0 mph - N/A   Clear
4:00 AM 50.0 °F 48.2 °F 94% 29.62 in - ENE 16.1 mph - N/A   Clear
5:00 AM 51.8 °F 48.2 °F 88% 29.62 in - ENE 19.6 mph - N/A   Clear
6:00 AM 50.0 °F 48.2 °F 94% 29.62 in - NE 16.1 mph - N/A   Clear
7:00 AM 50.0 °F 46.4 °F 87% 29.62 in 6.2 mi NE 11.5 mph - N/A   Partly Cloudy
8:00 AM 50.0 °F 46.4 °F 87% 29.62 in - NE 9.2 mph - N/A   Clear
9:00 AM 53.6 °F 48.2 °F 82% 29.62 in - NE 10.4 mph - N/A   Clear
10:00 AM 57.2 °F 44.6 °F 63% 29.65 in - NNE 6.9 mph - N/A   Clear
11:00 AM 59.0 °F 46.4 °F 63% 29.62 in - NE 10.4 mph - N/A   Clear
12:00 PM 60.8 °F 50.0 °F 68% 29.62 in - ENE 11.5 mph - N/A   Clear
1:00 PM 60.8 °F 46.4 °F 59% 29.62 in - ENE 13.8 mph - N/A   Clear
2:00 PM 62.6 °F 46.4 °F 55% 29.59 in - ENE 11.5 mph - N/A   Clear
3:00 PM 59.0 °F 48.2 °F 67% 29.59 in - East 9.2 mph - N/A   Clear
4:00 PM 60.8 °F 48.2 °F 63% 29.59 in - East 6.9 mph - N/A   Clear
5:00 PM 57.2 °F 50.0 °F 77% 29.62 in - ESE 4.6 mph - N/A   Clear
6:00 PM 51.8 °F 46.4 °F 82% 29.62 in - South 2.3 mph - N/A   Clear
7:00 PM 48.2 °F 39.2 °F 71% 29.62 in - NE 4.6 mph - N/A   Clear
8:00 PM 51.8 °F 37.4 °F 58% 29.65 in - NW 4.6 mph - N/A   Clear
9:00 PM 50.0 °F 39.2 °F 66% 29.65 in - NE 4.6 mph - N/A   Clear
10:00 PM 50.0 °F 39.2 °F 66% 29.65 in - NNW 9.2 mph - N/A   Clear
11:00 PM 48.2 °F 39.2 °F 71% 29.65 in - ESE 3.5 mph - N/A   Clear